FW8707 Weather Reports


Display with metric or nautical units.
time (UTC)temp
F
wind
direction
speed
MPH
gust
MPH
rain 1hr
in
rain 24hr
in
rain mn
in
humidity
%
barometer
mb
20260508044010 54 270 0.0 4.0 0.00 0.00 0.00 69 1014.8
20260508043020 54 270 0.0 5.0 0.00 0.00 0.00 67 1014.7
20260508041524 56 270 0.0 0.0 0.00 0.00 0.00 65 1014.5
20260508041011 56 270 0.0 0.0 0.00 0.00 0.00 65 1014.6
20260508040512 56 270 0.0 4.0 0.00 0.00 0.00 65 1014.5
20260508040034 56 270 0.0 4.0 0.00 0.00 0.00 63 1014.5
20260508035507 57 270 0.0 3.0 0.00 0.00 0.00 64 1014.5
20260508035011 57 270 0.0 5.0 0.00 0.00 0.00 60 1014.8
20260508034529 58 270 1.0 10.0 0.00 0.00 0.00 55 1015.2
20260508034012 57 270 5.0 16.0 0.00 0.00 0.00 54 1015.1
20260508033512 57 270 7.0 16.0 0.00 0.00 0.00 53 1014.8
20260508032008 55 270 0.0 3.0 0.00 0.00 0.00 60 1014.3
20260508031528 55 270 0.0 2.0 0.00 0.00 0.00 61 1014.3
20260508030023 56 270 0.0 3.0 0.00 0.00 0.00 62 1014.1
20260508025511 56 270 0.0 4.0 0.00 0.00 0.00 61 1013.9
20260508025012 56 270 1.0 6.0 0.00 0.00 0.00 61 1013.7
20260508024540 56 270 1.0 8.0 0.00 0.00 0.00 61 1013.6
20260508024008 56 270 2.0 10.0 0.00 0.00 0.00 60 1013.6
20260508023511 57 270 3.0 12.0 0.00 0.00 0.00 58 1013.6
20260508023029 58 270 3.0 12.0 0.00 0.00 0.00 56 1013.6
20260508022508 59 270 3.0 17.0 0.00 0.00 0.00 52 1013.6
20260508022012 59 270 6.0 17.0 0.00 0.00 0.00 50 1013.5
20260508021010 60 281 1.0 7.0 0.00 0.00 0.00 46 1013.3
20260508020022 61 270 1.0 9.0 0.00 0.00 0.00 44 1013.2
20260508015509 61 270 3.0 9.0 0.00 0.00 0.00 44 1013.2
20260508014541 62 270 1.0 6.0 0.00 0.00 0.00 44 1013.2
20260508014010 62 270 1.0 6.0 0.00 0.00 0.00 43 1013.2
20260508013508 62 270 2.0 5.0 0.00 0.00 0.00 43 1013.1
20260508013027 62 270 2.0 5.0 0.00 0.00 0.00 43 1012.8
20260508012509 63 270 0.0 4.0 0.00 0.00 0.00 42 1012.7
20260508012010 63 279 1.0 4.0 0.00 0.00 0.00 41 1012.5
20260508011525 63 279 1.0 4.0 0.00 0.00 0.00 41 1012.5
20260508011011 63 281 0.0 4.0 0.00 0.00 0.00 41 1012.3
20260508010511 63 284 1.0 4.0 0.00 0.00 0.00 40 1012.3
20260508003050 61 270 1.0 14.0 0.00 0.00 0.00 44 1012.6
20260508002508 61 285 5.0 15.0 0.00 0.00 0.00 43 1012.8
20260508002015 62 270 5.0 15.0 0.00 0.00 0.00 42 1012.8
20260508001525 63 270 3.0 12.0 0.00 0.00 0.00 41 1012.7
20260508001010 63 270 4.0 12.0 0.00 0.00 0.00 39 1012.7
20260508000513 63 279 4.0 19.0 0.00 0.00 0.00 40 1012.5
20260508000026 64 279 4.0 19.0 0.00 0.00 0.00 40 1012.6
20260507235512 65 270 8.0 16.0 0.00 0.00 0.00 38 1012.5
20260507235010 66 282 5.0 15.0 0.00 0.00 0.00 36 1012.4
20260507234520 66 287 3.0 9.0 0.00 0.00 0.00 34 1012.4
20260507234010 66 282 3.0 12.0 0.00 0.00 0.00 33 1012.2
20260507233510 67 279 5.0 12.0 0.00 0.00 0.00 32 1012.3
20260507233032 67 275 3.0 13.0 0.00 0.00 0.00 32 1012.2
20260507232516 67 275 2.0 13.0 0.00 0.00 0.00 30 1012.1
20260507232009 68 287 2.0 9.0 0.00 0.00 0.00 30 1012.1
20260507231523 68 275 3.0 11.0 0.00 0.00 0.00 30 1012.1
20260507231016 68 279 4.0 11.0 0.00 0.00 0.00 29 1012.1
20260507230510 68 279 1.0 12.0 0.00 0.00 0.00 29 1012.0
20260507230016 68 279 2.0 12.0 0.00 0.00 0.00 28 1012.0
20260507225512 69 279 3.0 9.0 0.00 0.00 0.00 27 1012.0
20260507225008 69 279 1.0 10.0 0.00 0.00 0.00 28 1011.9
20260507224518 69 279 3.0 10.0 0.00 0.00 0.00 27 1012.0
20260507224007 69 279 3.0 10.0 0.00 0.00 0.00 25 1011.9
20260507223511 70 287 1.0 10.0 0.00 0.00 0.00 26 1011.9
20260507223026 70 280 3.0 10.0 0.00 0.00 0.00 25 1011.9
20260507222511 70 279 1.0 9.0 0.00 0.00 0.00 25 1011.9
20260507222011 71 279 4.0 9.0 0.00 0.00 0.00 24 1012.0
20260507221528 72 270 3.0 11.0 0.00 0.00 0.00 25 1012.0
20260507221014 72 257 5.0 11.0 0.00 0.00 0.00 24 1012.0
20260507220513 72 359 6.0 11.0 0.00 0.00 0.00 24 1012.0
20260507220027 72 305 1.0 9.0 0.00 0.00 0.00 24 1012.1
20260507215514 73 298 3.0 9.0 0.00 0.00 0.00 25 1012.3
20260507215008 73 303 2.0 9.0 0.00 0.00 0.00 24 1012.3
20260507214518 73 258 0.0 10.0 0.00 0.00 0.00 26 1012.3
20260507214009 73 282 3.0 14.0 0.00 0.00 0.00 24 1012.4
20260507213507 73 325 3.0 14.0 0.00 0.00 0.00 25 1012.4
20260507213020 72 288 3.0 14.0 0.00 0.00 0.00 24 1012.5
20260507212511 73 260 7.0 14.0 0.00 0.00 0.00 25 1012.5
20260507212012 73 261 3.0 9.0 0.00 0.00 0.00 26 1012.5
20260507211526 72 304 3.0 12.0 0.00 0.00 0.00 24 1012.6
20260507211008 72 275 5.0 13.0 0.00 0.00 0.00 25 1012.8
20260507210508 72 254 4.0 14.0 0.00 0.00 0.00 26 1012.9
20260507210028 73 288 7.0 14.0 0.00 0.00 0.00 25 1012.9
20260507205512 73 287 7.0 14.0 0.00 0.00 0.00 25 1013.0
20260507205013 73 300 6.0 12.0 0.00 0.00 0.00 24 1013.1
20260507204008 73 281 5.0 13.0 0.00 0.00 0.00 24 1013.6
20260507203508 73 291 6.0 13.0 0.00 0.00 0.00 25 1013.6
20260507203018 73 281 1.0 11.0 0.00 0.00 0.00 26 1013.6
20260507202508 73 323 4.0 13.0 0.00 0.00 0.00 23 1013.6
20260507202013 73 294 6.0 13.0 0.00 0.00 0.00 26 1013.6
20260507201526 73 344 5.0 13.0 0.00 0.00 0.00 26 1013.7
20260507201009 73 279 4.0 13.0 0.00 0.00 0.00 26 1013.7
20260507200507 72 302 5.0 13.0 0.00 0.00 0.00 28 1013.7
20260507200027 72 304 5.0 14.0 0.00 0.00 0.00 27 1013.8
20260507195508 73 298 5.0 14.0 0.00 0.00 0.00 25 1013.7
20260507195011 73 211 1.0 10.0 0.00 0.00 0.00 29 1013.8
20260507194528 72 275 3.0 12.0 0.00 0.00 0.00 26 1013.7
20260507194009 72 360 6.0 12.0 0.00 0.00 0.00 28 1013.7
20260507193510 72 191 2.0 10.0 0.00 0.00 0.00 28 1013.7
20260507193034 73 289 3.0 10.0 0.00 0.00 0.00 29 1013.8
20260507192509 73 321 5.0 10.0 0.00 0.00 0.00 28 1013.8
20260507192011 73 46 1.0 9.0 0.00 0.00 0.00 28 1013.9
20260507191522 73 297 1.0 9.0 0.00 0.00 0.00 31 1014.0
20260507191011 72 270 2.0 8.0 0.00 0.00 0.00 27 1014.1
20260507190510 71 303 2.0 8.0 0.00 0.00 0.00 31 1014.1
20260507190027 70 341 2.0 7.0 0.00 0.00 0.00 28 1014.1
20260507185510 70 177 1.0 5.0 0.00 0.01 0.00 32 1014.1
20260507185009 69 156 2.0 5.0 0.00 0.02 0.00 32 1014.3
20260507184525 70 150 1.0 5.0 0.00 0.02 0.00 29 1014.4
20260507184012 69 118 0.0 5.0 0.00 0.03 0.00 33 1014.3
20260507183512 68 302 0.0 5.0 0.00 0.05 0.00 30 1014.4
20260507183028 68 286 1.0 8.0 0.00 0.06 0.00 29 1014.4
20260507182013 67 167 1.0 8.0 0.00 0.08 0.00 32 1014.5
20260507181526 66 117 0.0 8.0 0.00 0.09 0.00 35 1014.6
20260507181013 66 337 2.0 8.0 0.00 0.09 0.00 31 1014.7
20260507180511 67 249 2.0 5.0 0.00 0.10 0.00 31 1014.8
20260507180024 67 328 1.0 4.0 0.00 0.11 0.00 33 1014.9
20260507175511 67 303 0.0 5.0 0.00 0.11 0.00 33 1014.6
20260507175009 67 79 2.0 5.0 0.00 0.12 0.00 33 1014.7
20260507174526 67 304 2.0 5.0 0.00 0.13 0.00 34 1014.7
20260507174009 66 138 1.0 4.0 0.00 0.14 0.00 33 1014.9
20260507173508 65 44 1.0 4.0 0.00 0.15 0.00 33 1014.9
20260507173030 65 137 0.0 5.0 0.00 0.17 0.00 35 1014.9
20260507172510 66 351 1.0 5.0 0.00 0.18 0.00 34 1014.9
20260507172012 66 304 1.0 6.0 0.00 0.20 0.00 31 1015.0
20260507171526 65 275 1.0 6.0 0.00 0.21 0.00 32 1015.0
20260507171011 65 331 2.0 6.0 0.00 0.23 0.00 32 1015.2
20260507170025 63 79 0.0 4.0 0.00 0.26 0.00 35 1015.4
20260507165507 63 286 0.0 4.0 0.00 0.28 0.00 36 1015.5
20260507165007 62 324 0.0 4.0 0.00 0.29 0.00 40 1015.5
20260507164526 61 193 1.0 4.0 0.00 0.31 0.00 42 1015.5
20260507164010 60 164 0.0 4.0 0.00 0.32 0.00 39 1015.5
20260507163509 60 302 1.0 7.0 0.00 0.33 0.00 40 1015.5
20260507163028 59 305 2.0 9.0 0.00 0.34 0.00 38 1015.5
20260507162510 59 296 3.0 9.0 0.00 0.35 0.00 38 1015.5
20260507162014 58 270 2.0 8.0 0.00 0.37 0.00 40 1015.6
20260507161525 58 25 0.0 9.0 0.00 0.38 0.00 40 1015.6
20260507161011 58 270 1.0 9.0 0.00 0.39 0.00 38 1015.6
20260507160509 58 275 3.0 11.0 0.00 0.40 0.00 38 1015.6
20260507160033 57 318 3.0 11.0 0.00 0.41 0.00 38 1015.6
20260507155011 57 306 4.0 9.0 0.00 0.42 0.00 37 1015.6
20260507154522 57 244 1.0 9.0 0.00 0.43 0.00 37 1015.7
20260507154010 57 88 0.0 2.0 0.00 0.44 0.00 40 1015.8
20260507153508 57 75 0.0 4.0 0.00 0.45 0.00 42 1015.9
20260507153006 57 62 0.0 4.0 0.00 0.45 0.00 44 1015.9
20260507152504 57 48 0.0 7.0 0.00 0.46 0.00 41 1015.9
20260507152009 57 47 0.0 9.0 0.00 0.47 0.00 43 1015.8
20260507151512 57 354 3.0 9.0 0.00 0.48 0.00 38 1015.8
20260507151008 56 305 0.0 5.0 0.00 0.48 0.00 39 1015.7
20260507150508 56 285 1.0 10.0 0.00 0.49 0.00 39 1015.7
20260507150018 56 270 2.0 10.0 0.00 0.50 0.00 39 1015.6
20260507145507 56 316 2.0 8.0 0.00 0.50 0.00 41 1015.5
20260507145006 55 281 3.0 6.0 0.00 0.50 0.00 41 1015.5
20260507144522 54 270 1.0 5.0 0.00 0.51 0.00 41 1015.6
20260507144007 54 270 1.0 5.0 0.00 0.51 0.00 42 1015.7
20260507143508 54 270 0.0 2.0 0.00 0.51 0.00 43 1015.6
20260507143026 53 270 0.0 0.0 0.00 0.51 0.00 45 1015.7
20260507142507 53 270 0.0 0.0 0.00 0.52 0.00 49 1015.8
20260507142011 53 270 0.0 0.0 0.00 0.52 0.00 47 1015.7
20260507141511 53 270 0.0 0.0 0.00 0.52 0.00 47 1015.6
20260507141008 53 270 0.0 1.0 0.00 0.52 0.00 45 1015.7
20260507140507 53 270 0.0 4.0 0.00 0.52 0.00 44 1015.6
20260507140025 53 270 0.0 4.0 0.00 0.52 0.00 42 1015.5
20260507135508 53 270 0.0 3.0 0.00 0.52 0.00 42 1015.5
20260507135008 53 270 0.0 4.0 0.00 0.52 0.00 43 1015.4
20260507134520 53 270 0.0 5.0 0.00 0.52 0.00 42 1015.3
20260507134009 53 270 0.0 5.0 0.00 0.52 0.00 43 1015.3
20260507133510 52 270 2.0 4.0 0.00 0.52 0.00 43 1015.1
20260507133024 52 270 1.0 5.0 0.00 0.52 0.00 43 1015.3
20260507132508 52 347 1.0 5.0 0.00 0.52 0.00 43 1015.1
20260507132008 51 333 2.0 6.0 0.00 0.52 0.00 43 1015.1
20260507131532 51 284 1.0 6.0 0.00 0.52 0.00 44 1015.0
20260507131009 51 275 1.0 4.0 0.00 0.52 0.00 45 1015.0
20260507130508 50 270 0.0 3.0 0.00 0.52 0.00 45 1014.9
20260507130012 50 270 0.0 9.0 0.00 0.52 0.00 45 1014.9
20260507125504 50 270 4.0 9.0 0.00 0.52 0.00 44 1014.9
20260507125011 49 270 2.0 11.0 0.00 0.52 0.00 46 1014.9
20260507124518 48 321 2.0 11.0 0.00 0.52 0.00 48 1014.7
20260507124012 47 270 4.0 11.0 0.00 0.52 0.00 49 1014.5
20260507123511 45 270 2.0 8.0 0.00 0.52 0.00 52 1014.5
20260507123024 44 270 0.0 3.0 0.00 0.52 0.00 54 1014.6
20260507122514 44 270 0.0 1.0 0.00 0.52 0.00 56 1014.6
20260507122010 44 305 0.0 0.0 0.00 0.52 0.00 57 1014.6
20260507121522 45 305 0.0 0.0 0.00 0.52 0.00 56 1014.8
20260507121008 45 305 0.0 0.0 0.00 0.52 0.00 55 1014.8
20260507120508 45 305 0.0 1.0 0.00 0.52 0.00 54 1014.9
20260507120022 45 305 0.0 1.0 0.00 0.52 0.00 51 1014.9
20260507115511 45 281 0.0 3.0 0.00 0.52 0.00 51 1014.9
20260507115014 46 275 0.0 3.0 0.00 0.52 0.00 50 1014.8
20260507114511 46 275 0.0 5.0 0.00 0.52 0.00 50 1014.8
20260507114008 46 252 0.0 5.0 0.00 0.52 0.00 50 1014.7
20260507113506 46 288 1.0 4.0 0.00 0.52 0.00 49 1014.7
20260507113016 46 258 1.0 7.0 0.00 0.52 0.00 49 1014.6
20260507112509 46 292 0.0 7.0 0.00 0.52 0.00 50 1014.6
20260507112010 46 260 3.0 10.0 0.00 0.52 0.00 50 1014.5
20260507111520 45 287 5.0 10.0 0.00 0.52 0.00 52 1014.5
20260507111007 44 297 5.0 9.0 0.00 0.52 0.00 55 1014.4
20260507110509 42 288 3.0 10.0 0.00 0.52 0.00 60 1014.5
20260507110026 40 260 5.0 10.0 0.00 0.52 0.00 64 1014.5
20260507105508 38 295 3.0 5.0 0.00 0.52 0.00 72 1014.6
20260507105010 36 310 2.0 4.0 0.00 0.52 0.00 81 1014.6
20260507104528 34 310 0.0 2.0 0.00 0.52 0.00 87 1014.6
20260507104010 34 270 0.0 0.0 0.00 0.52 0.00 87 1014.8
20260507103507 33 270 0.0 0.0 0.00 0.52 0.00 87 1014.8
20260507103022 33 299 0.0 0.0 0.00 0.52 0.00 87 1014.7
20260507102506 32 298 0.0 0.0 0.00 0.52 0.00 88 1014.7
20260507102008 32 298 0.0 0.0 0.00 0.52 0.00 88 1014.7
20260507101535 32 299 0.0 0.0 0.00 0.52 0.00 88 1014.8
20260507101008 32 299 0.0 0.0 0.00 0.52 0.00 88 1014.9
20260507100507 32 299 0.0 2.0 0.00 0.52 0.00 88 1014.9
20260507100032 32 270 0.0 2.0 0.00 0.52 0.00 88 1014.9
20260507095508 32 260 0.0 2.0 0.00 0.52 0.00 88 1015.0
20260507095012 32 275 0.0 3.0 0.00 0.52 0.00 88 1014.9
20260507094525 32 326 0.0 3.0 0.00 0.52 0.00 88 1015.0
20260507094010 32 309 0.0 2.0 0.00 0.52 0.00 87 1015.1
20260507093508 32 309 0.0 2.0 0.00 0.52 0.00 87 1015.1
20260507093032 32 209 0.0 2.0 0.00 0.52 0.00 87 1015.1
20260507092514 32 209 0.0 2.0 0.00 0.52 0.00 87 1015.1
20260507092010 32 331 0.0 2.0 0.00 0.52 0.00 87 1015.0
20260507091541 32 329 0.0 1.0 0.00 0.52 0.00 87 1015.1
20260507091007 32 306 0.0 2.0 0.00 0.52 0.00 87 1015.0
20260507090507 32 307 0.0 2.0 0.00 0.52 0.00 87 1015.1
20260507090022 32 281 0.0 4.0 0.00 0.52 0.00 87 1015.0
20260507085509 32 281 0.0 4.0 0.00 0.52 0.00 87 1015.1
20260507085008 32 328 0.0 0.0 0.00 0.54 0.00 86 1015.3
20260507084527 32 328 0.0 0.0 0.00 0.54 0.00 86 1015.3
20260507084012 32 329 0.0 0.0 0.00 0.54 0.00 85 1015.4
20260507083510 32 233 0.0 0.0 0.00 0.54 0.00 85 1015.4
20260507083026 32 233 0.0 0.0 0.00 0.54 0.00 85 1015.3
20260507082508 33 225 0.0 1.0 0.00 0.54 0.00 84 1015.5
20260507081531 33 225 0.0 2.0 0.00 0.54 0.00 84 1015.5
20260507081007 33 76 0.0 4.0 0.00 0.54 0.00 83 1015.4
20260507080515 33 76 0.0 5.0 0.00 0.54 0.00 82 1015.4
20260507080017 33 54 1.0 5.0 0.00 0.54 0.00 81 1015.3
20260507075508 33 287 0.0 2.0 0.00 0.54 0.00 82 1015.3
20260507075014 33 287 0.0 2.0 0.00 0.54 0.00 83 1015.5
20260507074521 33 287 0.0 2.0 0.00 0.54 0.00 83 1015.5
20260507074008 33 287 0.0 5.0 0.00 0.54 0.00 84 1015.6
20260507073511 33 286 1.0 5.0 0.00 0.54 0.00 85 1015.6
20260507073027 32 233 0.0 2.0 0.00 0.54 0.00 85 1015.7
20260507072511 32 291 0.0 4.0 0.00 0.54 0.00 85 1015.8
20260507072009 32 288 1.0 4.0 0.00 0.54 0.00 86 1015.9
20260507071526 32 270 0.0 6.0 0.00 0.54 0.00 86 1015.8
20260507071008 32 286 2.0 6.0 0.00 0.54 0.00 87 1016.0
20260507070509 32 33 0.0 3.0 0.00 0.54 0.00 87 1016.0
20260507070029 32 31 0.0 4.0 0.00 0.54 0.00 87 1016.1
20260507065514 32 311 0.0 4.0 0.00 0.55 0.00 87 1016.1
20260507065012 32 316 0.0 4.0 0.00 0.55 0.00 87 1016.1
20260507064527 32 275 0.0 1.0 0.00 0.55 0.00 87 1016.3
20260507064008 32 245 0.0 1.0 0.00 0.55 0.00 86 1016.4
20260507063511 32 245 0.0 1.0 0.00 0.55 0.00 86 1016.3
20260507063022 32 245 0.0 2.0 0.00 0.55 0.00 86 1016.4
20260507062514 32 245 0.0 4.0 0.00 0.55 0.00 86 1016.4
20260507062013 32 297 0.0 4.0 0.00 0.55 0.00 86 1016.5
20260507061532 32 292 1.0 4.0 0.00 0.55 0.00 85 1016.6
20260507061011 33 281 0.0 3.0 0.00 0.55 0.00 85 1016.7
20260507060508 33 291 0.0 0.0 0.00 0.55 0.00 84 1016.7
20260507060031 33 291 0.0 0.0 0.00 0.55 0.00 84 1016.8
20260507055510 33 291 0.0 0.0 0.00 0.55 0.55 84 1016.7
20260507055007 33 291 0.0 0.0 0.00 0.55 0.55 84 1016.9
20260507054526 33 291 0.0 4.0 0.00 0.55 0.55 83 1016.8
20260507054010 33 291 1.0 4.0 0.00 0.55 0.55 83 1016.8
20260507053511 33 287 0.0 0.0 0.00 0.55 0.55 83 1016.8
20260507053028 34 287 0.0 0.0 0.00 0.55 0.55 83 1017.0
20260507052509 34 287 0.0 0.0 0.00 0.55 0.55 83 1017.2
20260507052007 34 287 0.0 3.0 0.00 0.55 0.55 83 1017.2
20260507051525 34 287 0.0 3.0 0.00 0.55 0.55 83 1017.2
20260507051011 34 287 0.0 3.0 0.00 0.55 0.55 82 1017.2
20260507050509 34 315 0.0 0.0 0.00 0.55 0.55 82 1017.4
20260507050032 34 315 0.0 0.0 0.00 0.55 0.55 82 1017.6
20260507045508 35 315 0.0 0.0 0.00 0.56 0.55 82 1017.7
20260507045009 35 315 0.0 0.0 0.00 0.56 0.55 81 1017.6
20260507044541 35 315 0.0 0.0 0.00 0.56 0.55 81 1017.8